| time (UTC) | temp F | wind direction | speed MPH | gust MPH | rain 1hr in | rain 24hr in | rain mn in | humidity % | barometer mb |
| 20260902101058 | 44 | 98 | 1.0 | 3.0 | 0.00 | 0.00 | 0.00 | 41 | 1020.1 |
| 20260902100558 | 43 | 0 | 0.0 | 2.0 | 0.00 | 0.00 | 0.00 | 41 | 1020.2 |
| 20260902100101 | 43 | 0 | 0.0 | 2.0 | 0.00 | 0.00 | 0.00 | 42 | 1020.4 |
| 20260902095601 | 43 | 182 | 0.0 | 1.0 | 0.00 | 0.00 | 0.00 | 42 | 1020.2 |
| 20260902095058 | 45 | 0 | 0.0 | 5.0 | 0.00 | 0.00 | 0.00 | 40 | 1020.4 |
| 20260902094603 | 45 | 0 | 1.0 | 5.0 | 0.00 | 0.00 | 0.00 | 40 | 1020.4 |
| 20260902094059 | 44 | 118 | 3.0 | 5.0 | 0.00 | 0.00 | 0.00 | 42 | 1020.3 |
| 20260902093557 | 45 | 128 | 0.0 | 3.0 | 0.00 | 0.00 | 0.00 | 42 | 1020.5 |
| 20260902093111 | 46 | 249 | 0.0 | 3.0 | 0.00 | 0.00 | 0.00 | 39 | 1020.6 |
| 20260902092558 | 44 | 63 | 1.0 | 2.0 | 0.00 | 0.00 | 0.00 | 41 | 1020.5 |
| 20260902092101 | 44 | 147 | 0.0 | 2.0 | 0.00 | 0.00 | 0.00 | 43 | 1020.6 |
| 20260902091607 | 45 | 246 | 0.0 | 3.0 | 0.00 | 0.00 | 0.00 | 42 | 1020.6 |
| 20260902091100 | 45 | 133 | 0.0 | 3.0 | 0.00 | 0.00 | 0.00 | 42 | 1020.5 |
| 20260902090558 | 44 | 153 | 0.0 | 3.0 | 0.00 | 0.00 | 0.00 | 44 | 1020.7 |
| 20260902090105 | 44 | 0 | 0.0 | 3.0 | 0.00 | 0.00 | 0.00 | 43 | 1020.8 |
| 20260902085558 | 45 | 0 | 1.0 | 3.0 | 0.00 | 0.00 | 0.00 | 44 | 1020.7 |
| 20260902085059 | 43 | 118 | 1.0 | 3.0 | 0.00 | 0.00 | 0.00 | 45 | 1020.6 |
| 20260902084605 | 44 | 0 | 0.0 | 1.0 | 0.00 | 0.00 | 0.00 | 46 | 1020.6 |
| 20260902084059 | 44 | 0 | 0.0 | 2.0 | 0.00 | 0.00 | 0.00 | 45 | 1020.5 |
| 20260902083558 | 44 | 0 | 0.0 | 2.0 | 0.00 | 0.00 | 0.00 | 45 | 1020.7 |
| 20260902083104 | 44 | 0 | 0.0 | 2.0 | 0.00 | 0.00 | 0.00 | 45 | 1020.8 |
| 20260902082558 | 44 | 0 | 0.0 | 2.0 | 0.00 | 0.00 | 0.00 | 44 | 1020.9 |
| 20260902082058 | 45 | 217 | 0.0 | 2.0 | 0.00 | 0.00 | 0.00 | 44 | 1020.8 |
| 20260902081609 | 45 | 0 | 0.0 | 2.0 | 0.00 | 0.00 | 0.00 | 44 | 1020.9 |
| 20260902081058 | 45 | 0 | 0.0 | 2.0 | 0.00 | 0.00 | 0.00 | 45 | 1020.7 |
| 20260902080559 | 46 | 255 | 0.0 | 1.0 | 0.00 | 0.00 | 0.00 | 42 | 1020.7 |
| 20260902080105 | 46 | 207 | 0.0 | 2.0 | 0.00 | 0.00 | 0.00 | 42 | 1020.6 |
| 20260902075557 | 47 | 0 | 0.0 | 2.0 | 0.00 | 0.00 | 0.00 | 40 | 1020.8 |
| 20260902075058 | 48 | 248 | 0.0 | 4.0 | 0.00 | 0.00 | 0.00 | 40 | 1020.9 |
| 20260902074614 | 48 | 77 | 2.0 | 6.0 | 0.00 | 0.00 | 0.00 | 39 | 1020.6 |
| 20260902074058 | 48 | 93 | 3.0 | 6.0 | 0.00 | 0.00 | 0.00 | 40 | 1020.8 |
| 20260902073602 | 48 | 119 | 0.0 | 4.0 | 0.00 | 0.00 | 0.00 | 41 | 1020.7 |
| 20260902073109 | 48 | 0 | 1.0 | 5.0 | 0.00 | 0.00 | 0.00 | 40 | 1020.8 |
| 20260902072557 | 47 | 95 | 1.0 | 5.0 | 0.00 | 0.00 | 0.00 | 42 | 1020.6 |
| 20260902072058 | 47 | 143 | 0.0 | 4.0 | 0.00 | 0.00 | 0.00 | 43 | 1020.8 |
| 20260902071604 | 47 | 110 | 1.0 | 4.0 | 0.00 | 0.00 | 0.00 | 44 | 1020.6 |
| 20260902071058 | 47 | 161 | 2.0 | 5.0 | 0.00 | 0.00 | 0.00 | 44 | 1020.8 |
| 20260902070557 | 48 | 0 | 0.0 | 6.0 | 0.00 | 0.00 | 0.00 | 44 | 1020.6 |
| 20260902070107 | 48 | 55 | 3.0 | 6.0 | 0.00 | 0.00 | 0.00 | 45 | 1020.8 |
| 20260902065558 | 46 | 82 | 0.0 | 3.0 | 0.00 | 0.00 | 0.00 | 46 | 1020.6 |
| 20260902065100 | 47 | 0 | 0.0 | 5.0 | 0.00 | 0.00 | 0.00 | 46 | 1020.6 |
| 20260902064603 | 48 | 0 | 3.0 | 6.0 | 0.00 | 0.00 | 0.00 | 45 | 1020.6 |
| 20260902064059 | 49 | 0 | 0.0 | 8.0 | 0.00 | 0.00 | 0.00 | 44 | 1020.6 |
| 20260902063558 | 49 | 77 | 4.0 | 8.0 | 0.00 | 0.00 | 0.00 | 45 | 1020.4 |
| 20260902063104 | 48 | 63 | 3.0 | 6.0 | 0.00 | 0.00 | 0.00 | 45 | 1020.4 |
| 20260902062558 | 47 | 136 | 1.0 | 4.0 | 0.00 | 0.00 | 0.00 | 47 | 1020.6 |
| 20260902062058 | 47 | 0 | 1.0 | 3.0 | 0.00 | 0.00 | 0.00 | 48 | 1020.4 |
| 20260902061604 | 48 | 0 | 0.0 | 2.0 | 0.00 | 0.00 | 0.00 | 46 | 1020.6 |
| 20260902061059 | 48 | 0 | 0.0 | 2.0 | 0.00 | 0.00 | 0.00 | 45 | 1020.5 |
| 20260902060600 | 48 | 49 | 0.0 | 3.0 | 0.00 | 0.00 | 0.00 | 46 | 1020.1 |
| 20260902060116 | 48 | 0 | 0.0 | 3.0 | 0.00 | 0.00 | 0.00 | 47 | 1020.3 |
| 20260902055558 | 48 | 0 | 0.0 | 3.0 | 0.00 | 0.00 | 0.00 | 47 | 1020.2 |
| 20260902055059 | 48 | 0 | 1.0 | 3.0 | 0.00 | 0.00 | 0.00 | 48 | 1020.1 |
| 20260902054603 | 49 | 0 | 0.0 | 2.0 | 0.00 | 0.00 | 0.00 | 48 | 1020.2 |
| 20260902054058 | 48 | 66 | 0.0 | 3.0 | 0.00 | 0.00 | 0.00 | 50 | 1020.2 |
| 20260902053558 | 48 | 0 | 0.0 | 3.0 | 0.00 | 0.00 | 0.00 | 49 | 1020.4 |
| 20260902053107 | 48 | 0 | 0.0 | 3.0 | 0.00 | 0.00 | 0.00 | 48 | 1020.5 |
| 20260902052557 | 49 | 183 | 0.0 | 3.0 | 0.00 | 0.00 | 0.00 | 47 | 1020.4 |
| 20260902052057 | 50 | 0 | 1.0 | 3.0 | 0.00 | 0.00 | 0.00 | 46 | 1020.6 |
| 20260902051606 | 51 | 133 | 0.0 | 5.0 | 0.00 | 0.00 | 0.00 | 45 | 1020.6 |
| 20260902051059 | 52 | 0 | 0.0 | 5.0 | 0.00 | 0.00 | 0.00 | 44 | 1020.6 |
| 20260902050600 | 51 | 0 | 3.0 | 5.0 | 0.00 | 0.00 | 0.00 | 44 | 1020.7 |
| 20260902050108 | 51 | 163 | 0.0 | 6.0 | 0.00 | 0.00 | 0.00 | 45 | 1020.9 |
| 20260902045557 | 51 | 0 | 3.0 | 6.0 | 0.00 | 0.00 | 0.00 | 44 | 1020.9 |
| 20260902045058 | 51 | 114 | 0.0 | 2.0 | 0.00 | 0.00 | 0.00 | 46 | 1020.9 |
| 20260902044605 | 52 | 254 | 0.0 | 1.0 | 0.00 | 0.00 | 0.00 | 47 | 1020.9 |
| 20260902044058 | 52 | 261 | 0.0 | 2.0 | 0.00 | 0.00 | 0.00 | 46 | 1020.9 |
| 20260902043558 | 52 | 0 | 0.0 | 2.0 | 0.00 | 0.00 | 0.00 | 44 | 1020.9 |
| 20260902043113 | 53 | 68 | 0.0 | 2.0 | 0.00 | 0.00 | 0.00 | 45 | 1020.8 |
| 20260902042603 | 53 | 261 | 0.0 | 4.0 | 0.00 | 0.00 | 0.00 | 46 | 1020.9 |
| 20260902042058 | 53 | 0 | 0.0 | 4.0 | 0.00 | 0.00 | 0.00 | 46 | 1020.7 |
| 20260902041605 | 53 | 220 | 0.0 | 5.0 | 0.00 | 0.00 | 0.00 | 45 | 1020.6 |
| 20260902041057 | 54 | 0 | 0.0 | 6.0 | 0.00 | 0.00 | 0.00 | 45 | 1020.6 |
| 20260902040559 | 54 | 0 | 0.0 | 6.0 | 0.00 | 0.00 | 0.00 | 44 | 1020.6 |
| 20260902040108 | 55 | 0 | 1.0 | 6.0 | 0.00 | 0.00 | 0.00 | 41 | 1020.5 |
| 20260902035557 | 55 | 310 | 0.0 | 9.0 | 0.00 | 0.00 | 0.00 | 39 | 1020.3 |
| 20260902035059 | 55 | 50 | 2.0 | 10.0 | 0.00 | 0.00 | 0.00 | 37 | 1020.3 |
| 20260902034608 | 56 | 53 | 3.0 | 12.0 | 0.00 | 0.00 | 0.00 | 39 | 1020.2 |
| 20260902034058 | 57 | 17 | 2.0 | 19.0 | 0.00 | 0.00 | 0.00 | 37 | 1020.1 |
| 20260902033558 | 57 | 47 | 9.0 | 19.0 | 0.00 | 0.00 | 0.00 | 34 | 1019.9 |
| 20260902033108 | 58 | 192 | 2.0 | 6.0 | 0.00 | 0.00 | 0.00 | 33 | 1019.7 |
| 20260902032558 | 60 | 0 | 0.0 | 9.0 | 0.00 | 0.00 | 0.00 | 26 | 1019.5 |
| 20260902032058 | 61 | 234 | 3.0 | 11.0 | 0.00 | 0.00 | 0.00 | 18 | 1019.4 |
| 20260902031608 | 62 | 182 | 4.0 | 14.0 | 0.00 | 0.00 | 0.00 | 18 | 1019.5 |
| 20260902031101 | 62 | 155 | 7.0 | 19.0 | 0.00 | 0.00 | 0.00 | 16 | 1019.4 |
| 20260902030558 | 63 | 144 | 10.0 | 19.0 | 0.00 | 0.00 | 0.00 | 16 | 1019.5 |
| 20260902025558 | 63 | 129 | 10.0 | 16.0 | 0.00 | 0.00 | 0.00 | 16 | 1019.4 |
| 20260902025101 | 63 | 134 | 6.0 | 18.0 | 0.00 | 0.00 | 0.00 | 16 | 1019.4 |
| 20260902024611 | 63 | 103 | 11.0 | 18.0 | 0.00 | 0.00 | 0.00 | 16 | 1019.3 |
| 20260902024100 | 63 | 150 | 8.0 | 20.0 | 0.00 | 0.00 | 0.00 | 16 | 1019.3 |
| 20260902023558 | 63 | 150 | 10.0 | 20.0 | 0.00 | 0.00 | 0.00 | 16 | 1019.3 |
| 20260902023106 | 63 | 157 | 9.0 | 18.0 | 0.00 | 0.00 | 0.00 | 16 | 1019.3 |
| 20260902022558 | 64 | 131 | 10.0 | 18.0 | 0.00 | 0.00 | 0.00 | 16 | 1019.0 |
| 20260902022101 | 64 | 149 | 4.0 | 16.0 | 0.00 | 0.00 | 0.00 | 15 | 1019.0 |
| 20260902021604 | 64 | 91 | 7.0 | 16.0 | 0.00 | 0.00 | 0.00 | 16 | 1019.1 |
| 20260902021058 | 64 | 124 | 9.0 | 16.0 | 0.00 | 0.00 | 0.00 | 16 | 1019.1 |
| 20260902020558 | 64 | 136 | 5.0 | 11.0 | 0.00 | 0.00 | 0.00 | 16 | 1019.2 |
| 20260902020104 | 64 | 135 | 5.0 | 16.0 | 0.00 | 0.00 | 0.00 | 15 | 1019.1 |
| 20260902015557 | 65 | 164 | 9.0 | 16.0 | 0.00 | 0.00 | 0.00 | 15 | 1018.9 |
| 20260902015057 | 65 | 148 | 7.0 | 20.0 | 0.00 | 0.00 | 0.00 | 15 | 1018.8 |
| 20260902014604 | 66 | 146 | 6.0 | 20.0 | 0.00 | 0.00 | 0.00 | 14 | 1018.9 |
| 20260902014101 | 66 | 69 | 10.0 | 20.0 | 0.00 | 0.00 | 0.00 | 14 | 1018.9 |
| 20260902013558 | 66 | 139 | 6.0 | 12.0 | 0.00 | 0.00 | 0.00 | 14 | 1018.9 |
| 20260902013102 | 67 | 96 | 4.0 | 6.0 | 0.00 | 0.00 | 0.00 | 15 | 1018.9 |
| 20260902012558 | 67 | 162 | 0.0 | 13.0 | 0.00 | 0.00 | 0.00 | 15 | 1019.0 |
| 20260902012057 | 67 | 58 | 5.0 | 13.0 | 0.00 | 0.00 | 0.00 | 14 | 1018.9 |
| 20260902011605 | 68 | 184 | 6.0 | 12.0 | 0.00 | 0.00 | 0.00 | 13 | 1019.2 |
| 20260902011058 | 69 | 199 | 1.0 | 7.0 | 0.00 | 0.00 | 0.00 | 14 | 1019.0 |
| 20260902010558 | 69 | 0 | 3.0 | 7.0 | 0.00 | 0.00 | 0.00 | 13 | 1019.0 |
| 20260902010105 | 69 | 160 | 2.0 | 13.0 | 0.00 | 0.00 | 0.00 | 13 | 1019.1 |
| 20260902005555 | 69 | 259 | 1.0 | 13.0 | 0.00 | 0.00 | 0.00 | 13 | 1019.2 |
| 20260902005057 | 69 | 141 | 4.0 | 13.0 | 0.00 | 0.00 | 0.00 | 12 | 1019.3 |
| 20260902004603 | 69 | 302 | 4.0 | 12.0 | 0.00 | 0.00 | 0.00 | 13 | 1019.2 |
| 20260902004058 | 69 | 160 | 0.0 | 17.0 | 0.00 | 0.00 | 0.00 | 15 | 1019.4 |
| 20260902003600 | 69 | 149 | 6.0 | 17.0 | 0.00 | 0.00 | 0.00 | 12 | 1019.3 |
| 20260902003104 | 69 | 142 | 6.0 | 12.0 | 0.00 | 0.00 | 0.00 | 13 | 1019.4 |
| 20260902002557 | 70 | 131 | 3.0 | 9.0 | 0.00 | 0.00 | 0.00 | 12 | 1019.3 |
| 20260902002058 | 70 | 158 | 1.0 | 10.0 | 0.00 | 0.00 | 0.00 | 14 | 1019.4 |
| 20260902001607 | 70 | 229 | 4.0 | 17.0 | 0.00 | 0.00 | 0.00 | 13 | 1019.3 |
| 20260902001058 | 70 | 219 | 6.0 | 17.0 | 0.00 | 0.00 | 0.00 | 14 | 1019.3 |
| 20260902000558 | 70 | 136 | 6.0 | 15.0 | 0.00 | 0.00 | 0.00 | 13 | 1019.3 |
| 20260901235559 | 71 | 129 | 3.0 | 16.0 | 0.00 | 0.00 | 0.00 | 13 | 1019.4 |
| 20260901235100 | 71 | 158 | 2.0 | 13.0 | 0.00 | 0.00 | 0.00 | 14 | 1019.7 |
| 20260901234616 | 71 | 231 | 4.0 | 13.0 | 0.00 | 0.00 | 0.00 | 13 | 1019.7 |
| 20260901234055 | 71 | 160 | 4.0 | 13.0 | 0.00 | 0.00 | 0.00 | 13 | 1019.7 |
| 20260901233602 | 71 | 163 | 5.0 | 12.0 | 0.00 | 0.00 | 0.00 | 13 | 1019.7 |
| 20260901233108 | 71 | 226 | 3.0 | 13.0 | 0.00 | 0.00 | 0.00 | 13 | 1019.7 |
| 20260901232558 | 71 | 202 | 4.0 | 17.0 | 0.00 | 0.00 | 0.00 | 13 | 1019.9 |
| 20260901232058 | 71 | 63 | 6.0 | 17.0 | 0.00 | 0.00 | 0.00 | 13 | 1019.7 |
| 20260901231605 | 71 | 212 | 5.0 | 17.0 | 0.00 | 0.00 | 0.00 | 13 | 1019.9 |
| 20260901231058 | 72 | 245 | 7.0 | 17.0 | 0.00 | 0.00 | 0.00 | 12 | 1019.9 |
| 20260901230557 | 72 | 256 | 4.0 | 15.0 | 0.00 | 0.00 | 0.00 | 14 | 1019.8 |
| 20260901230105 | 72 | 262 | 9.0 | 15.0 | 0.00 | 0.00 | 0.00 | 13 | 1019.9 |
| 20260901225557 | 72 | 208 | 5.0 | 13.0 | 0.00 | 0.00 | 0.00 | 12 | 1019.9 |
| 20260901225057 | 73 | 223 | 4.0 | 11.0 | 0.00 | 0.00 | 0.00 | 11 | 1019.9 |
| 20260901224605 | 73 | 239 | 4.0 | 11.0 | 0.00 | 0.00 | 0.00 | 12 | 1019.8 |
| 20260901224057 | 73 | 220 | 1.0 | 12.0 | 0.00 | 0.00 | 0.00 | 14 | 1019.7 |
| 20260901223601 | 73 | 162 | 3.0 | 12.0 | 0.00 | 0.00 | 0.00 | 12 | 1019.8 |
| 20260901223105 | 73 | 252 | 5.0 | 12.0 | 0.00 | 0.00 | 0.00 | 11 | 1019.8 |
| 20260901222557 | 73 | 162 | 2.0 | 11.0 | 0.00 | 0.00 | 0.00 | 14 | 1019.7 |
| 20260901222057 | 73 | 217 | 4.0 | 14.0 | 0.00 | 0.00 | 0.00 | 13 | 1019.8 |
| 20260901221608 | 73 | 243 | 3.0 | 14.0 | 0.00 | 0.00 | 0.00 | 14 | 1019.9 |
| 20260901221057 | 74 | 248 | 4.0 | 12.0 | 0.00 | 0.00 | 0.00 | 14 | 1019.9 |
| 20260901220557 | 74 | 207 | 2.0 | 12.0 | 0.00 | 0.00 | 0.00 | 16 | 1019.8 |
| 20260901220118 | 73 | 82 | 3.0 | 9.0 | 0.00 | 0.00 | 0.00 | 16 | 1020.0 |
| 20260901215558 | 73 | 160 | 1.0 | 10.0 | 0.00 | 0.00 | 0.00 | 16 | 1019.9 |
| 20260901215058 | 72 | 0 | 1.0 | 18.0 | 0.00 | 0.00 | 0.00 | 16 | 1019.9 |
| 20260901214606 | 71 | 72 | 4.0 | 18.0 | 0.00 | 0.00 | 0.00 | 16 | 1019.7 |
| 20260901214059 | 71 | 58 | 5.0 | 17.0 | 0.00 | 0.00 | 0.00 | 18 | 1019.8 |
| 20260901213559 | 71 | 70 | 5.0 | 12.0 | 0.00 | 0.00 | 0.00 | 18 | 1019.9 |
| 20260901213112 | 71 | 87 | 6.0 | 14.0 | 0.00 | 0.00 | 0.00 | 19 | 1020.0 |
| 20260901212557 | 70 | 108 | 6.0 | 14.0 | 0.00 | 0.00 | 0.00 | 19 | 1020.0 |
| 20260901212057 | 71 | 59 | 3.0 | 11.0 | 0.00 | 0.00 | 0.00 | 18 | 1020.1 |
| 20260901211604 | 71 | 63 | 2.0 | 12.0 | 0.00 | 0.00 | 0.00 | 19 | 1020.2 |
| 20260901211058 | 70 | 140 | 5.0 | 13.0 | 0.00 | 0.00 | 0.00 | 19 | 1020.3 |
| 20260901210557 | 70 | 53 | 7.0 | 13.0 | 0.00 | 0.00 | 0.00 | 18 | 1020.4 |
| 20260901210104 | 70 | 97 | 3.0 | 20.0 | 0.00 | 0.00 | 0.00 | 20 | 1020.5 |
| 20260901205558 | 69 | 53 | 6.0 | 20.0 | 0.00 | 0.00 | 0.00 | 20 | 1020.5 |
| 20260901205101 | 70 | 53 | 4.0 | 14.0 | 0.00 | 0.00 | 0.00 | 20 | 1020.4 |
| 20260901204605 | 68 | 140 | 7.0 | 14.0 | 0.00 | 0.00 | 0.00 | 20 | 1020.5 |
| 20260901204059 | 68 | 69 | 8.0 | 17.0 | 0.00 | 0.00 | 0.00 | 21 | 1020.5 |
| 20260901203559 | 69 | 252 | 7.0 | 17.0 | 0.00 | 0.00 | 0.00 | 21 | 1020.6 |
| 20260901203111 | 69 | 122 | 7.0 | 19.0 | 0.00 | 0.00 | 0.00 | 23 | 1020.4 |
| 20260901202557 | 68 | 79 | 7.0 | 19.0 | 0.00 | 0.00 | 0.00 | 23 | 1020.5 |
| 20260901202057 | 69 | 47 | 6.0 | 13.0 | 0.00 | 0.00 | 0.00 | 22 | 1020.6 |
| 20260901201605 | 68 | 45 | 7.0 | 16.0 | 0.00 | 0.00 | 0.00 | 22 | 1020.6 |
| 20260901201058 | 68 | 34 | 7.0 | 18.0 | 0.00 | 0.00 | 0.00 | 24 | 1020.5 |
| 20260901200557 | 67 | 37 | 10.0 | 18.0 | 0.00 | 0.00 | 0.00 | 23 | 1020.5 |
| 20260901200106 | 68 | 109 | 7.0 | 18.0 | 0.00 | 0.00 | 0.00 | 27 | 1020.5 |
| 20260901195600 | 68 | 81 | 9.0 | 18.0 | 0.00 | 0.00 | 0.00 | 29 | 1020.6 |
| 20260901195057 | 68 | 165 | 5.0 | 17.0 | 0.00 | 0.00 | 0.00 | 27 | 1020.5 |
| 20260901194607 | 68 | 60 | 7.0 | 17.0 | 0.00 | 0.00 | 0.00 | 27 | 1020.6 |
| 20260901194057 | 68 | 132 | 8.0 | 14.0 | 0.00 | 0.00 | 0.00 | 27 | 1020.7 |
| 20260901193557 | 68 | 64 | 7.0 | 14.0 | 0.00 | 0.00 | 0.00 | 24 | 1020.7 |
| 20260901193116 | 68 | 59 | 6.0 | 14.0 | 0.00 | 0.00 | 0.00 | 27 | 1020.8 |
| 20260901192557 | 68 | 169 | 8.0 | 14.0 | 0.00 | 0.00 | 0.00 | 26 | 1020.8 |
| 20260901192057 | 67 | 50 | 4.0 | 14.0 | 0.00 | 0.00 | 0.00 | 29 | 1020.8 |
| 20260901191606 | 66 | 87 | 6.0 | 14.0 | 0.00 | 0.00 | 0.00 | 31 | 1020.9 |
| 20260901191057 | 66 | 64 | 6.0 | 14.0 | 0.00 | 0.00 | 0.00 | 29 | 1021.1 |
| 20260901190557 | 65 | 144 | 7.0 | 17.0 | 0.00 | 0.00 | 0.00 | 29 | 1021.0 |
| 20260901185558 | 66 | 99 | 7.0 | 12.0 | 0.00 | 0.00 | 0.00 | 32 | 1021.3 |
| 20260901185057 | 65 | 119 | 6.0 | 12.0 | 0.00 | 0.00 | 0.00 | 31 | 1021.4 |
| 20260901184626 | 65 | 111 | 5.0 | 11.0 | 0.00 | 0.00 | 0.00 | 30 | 1021.4 |
| 20260901184058 | 65 | 105 | 7.0 | 13.0 | 0.00 | 0.00 | 0.00 | 30 | 1021.3 |
| 20260901183558 | 64 | 112 | 6.0 | 13.0 | 0.00 | 0.00 | 0.00 | 30 | 1021.4 |
| 20260901183106 | 65 | 77 | 7.0 | 11.0 | 0.00 | 0.00 | 0.00 | 29 | 1021.5 |
| 20260901182557 | 64 | 162 | 5.0 | 12.0 | 0.00 | 0.00 | 0.00 | 31 | 1021.5 |
| 20260901182057 | 64 | 136 | 4.0 | 12.0 | 0.00 | 0.00 | 0.00 | 32 | 1021.6 |
| 20260901181607 | 64 | 165 | 6.0 | 13.0 | 0.00 | 0.00 | 0.00 | 31 | 1021.7 |
| 20260901181058 | 64 | 114 | 7.0 | 13.0 | 0.00 | 0.00 | 0.00 | 32 | 1021.8 |
| 20260901180558 | 64 | 358 | 5.0 | 11.0 | 0.00 | 0.00 | 0.00 | 32 | 1021.7 |
| 20260901180105 | 64 | 138 | 6.0 | 11.0 | 0.00 | 0.00 | 0.00 | 34 | 1021.7 |
| 20260901175557 | 64 | 68 | 5.0 | 10.0 | 0.00 | 0.00 | 0.00 | 33 | 1021.7 |
| 20260901175057 | 65 | 144 | 5.0 | 10.0 | 0.00 | 0.00 | 0.00 | 32 | 1021.7 |
| 20260901174607 | 65 | 104 | 4.0 | 10.0 | 0.00 | 0.00 | 0.00 | 34 | 1021.6 |
| 20260901174057 | 66 | 120 | 1.0 | 6.0 | 0.00 | 0.00 | 0.00 | 31 | 1021.7 |
| 20260901173556 | 66 | 44 | 1.0 | 6.0 | 0.00 | 0.00 | 0.00 | 33 | 1021.7 |
| 20260901173104 | 66 | 55 | 1.0 | 4.0 | 0.00 | 0.00 | 0.00 | 38 | 1021.8 |
| 20260901172557 | 65 | 24 | 0.0 | 4.0 | 0.00 | 0.00 | 0.00 | 36 | 1021.7 |
| 20260901172058 | 65 | 83 | 1.0 | 7.0 | 0.00 | 0.00 | 0.00 | 34 | 1021.9 |
| 20260901171605 | 64 | 39 | 1.0 | 7.0 | 0.00 | 0.00 | 0.00 | 36 | 1021.8 |
| 20260901171057 | 64 | 87 | 2.0 | 7.0 | 0.00 | 0.00 | 0.00 | 34 | 1021.6 |
| 20260901170558 | 64 | 0 | 1.0 | 5.0 | 0.00 | 0.00 | 0.00 | 36 | 1021.7 |
| 20260901170120 | 64 | 51 | 1.0 | 4.0 | 0.00 | 0.00 | 0.00 | 36 | 1021.7 |
| 20260901165557 | 64 | 301 | 2.0 | 4.0 | 0.00 | 0.00 | 0.00 | 36 | 1021.7 |
| 20260901165058 | 63 | 297 | 1.0 | 4.0 | 0.00 | 0.00 | 0.00 | 35 | 1021.7 |
| 20260901164608 | 62 | 0 | 0.0 | 4.0 | 0.00 | 0.00 | 0.00 | 36 | 1021.8 |
| 20260901164057 | 62 | 68 | 2.0 | 5.0 | 0.00 | 0.00 | 0.00 | 38 | 1021.6 |
| 20260901163557 | 62 | 326 | 2.0 | 5.0 | 0.00 | 0.00 | 0.00 | 40 | 1021.7 |
| 20260901163105 | 62 | 46 | 2.0 | 4.0 | 0.00 | 0.00 | 0.00 | 39 | 1021.7 |
| 20260901162556 | 61 | 276 | 1.0 | 5.0 | 0.00 | 0.00 | 0.00 | 41 | 1021.7 |
| 20260901162058 | 61 | 63 | 3.0 | 5.0 | 0.00 | 0.00 | 0.00 | 41 | 1021.7 |
| 20260901161610 | 61 | 63 | 1.0 | 5.0 | 0.00 | 0.00 | 0.00 | 41 | 1021.7 |
| 20260901161058 | 61 | 62 | 1.0 | 5.0 | 0.00 | 0.00 | 0.00 | 41 | 1021.6 |
| 20260901160559 | 60 | 82 | 1.0 | 5.0 | 0.00 | 0.00 | 0.00 | 43 | 1021.7 |
| 20260901160103 | 59 | 54 | 1.0 | 5.0 | 0.00 | 0.00 | 0.00 | 45 | 1021.6 |
| 20260901155557 | 59 | 77 | 3.0 | 4.0 | 0.00 | 0.00 | 0.00 | 41 | 1021.7 |
| 20260901155057 | 60 | 51 | 1.0 | 3.0 | 0.00 | 0.00 | 0.00 | 42 | 1021.5 |
| 20260901154618 | 59 | 46 | 1.0 | 2.0 | 0.00 | 0.00 | 0.00 | 44 | 1021.5 |
| 20260901154057 | 58 | 0 | 0.0 | 3.0 | 0.00 | 0.00 | 0.00 | 43 | 1021.5 |
| 20260901153559 | 57 | 0 | 1.0 | 3.0 | 0.00 | 0.00 | 0.00 | 45 | 1021.5 |
| 20260901153118 | 57 | 136 | 0.0 | 2.0 | 0.00 | 0.00 | 0.00 | 45 | 1021.6 |
| 20260901152556 | 56 | 67 | 0.0 | 2.0 | 0.00 | 0.00 | 0.00 | 48 | 1021.6 |
| 20260901152058 | 56 | 56 | 0.0 | 2.0 | 0.00 | 0.00 | 0.00 | 48 | 1021.5 |
| 20260901151605 | 56 | 60 | 1.0 | 3.0 | 0.00 | 0.00 | 0.00 | 50 | 1021.5 |
| 20260901151058 | 55 | 0 | 1.0 | 3.0 | 0.00 | 0.00 | 0.00 | 50 | 1021.5 |
| 20260901150600 | 54 | 53 | 1.0 | 3.0 | 0.00 | 0.00 | 0.00 | 50 | 1021.3 |
| 20260901150110 | 54 | 53 | 2.0 | 3.0 | 0.00 | 0.00 | 0.00 | 49 | 1021.7 |
| 20260901145557 | 54 | 82 | 0.0 | 2.0 | 0.00 | 0.00 | 0.00 | 51 | 1021.6 |
| 20260901145117 | 53 | 107 | 1.0 | 2.0 | 0.00 | 0.00 | 0.00 | 49 | 1021.5 |
| 20260901144604 | 53 | 0 | 0.0 | 3.0 | 0.00 | 0.00 | 0.00 | 54 | 1021.5 |
| 20260901144057 | 52 | 112 | 0.0 | 3.0 | 0.00 | 0.00 | 0.00 | 51 | 1021.5 |
| 20260901143557 | 52 | 56 | 0.0 | 2.0 | 0.00 | 0.00 | 0.00 | 50 | 1021.5 |
| 20260901143107 | 51 | 0 | 0.0 | 2.0 | 0.00 | 0.00 | 0.00 | 53 | 1021.4 |
| 20260901142557 | 49 | 0 | 0.0 | 2.0 | 0.00 | 0.00 | 0.00 | 55 | 1021.3 |
| 20260901142057 | 48 | 0 | 0.0 | 2.0 | 0.00 | 0.00 | 0.00 | 56 | 1021.2 |
| 20260901141607 | 47 | 0 | 0.0 | 2.0 | 0.00 | 0.00 | 0.00 | 59 | 1021.2 |
| 20260901141059 | 48 | 164 | 0.0 | 4.0 | 0.00 | 0.00 | 0.00 | 58 | 1021.2 |
| 20260901140557 | 48 | 70 | 1.0 | 6.0 | 0.00 | 0.00 | 0.00 | 56 | 1021.1 |
| 20260901140110 | 48 | 96 | 2.0 | 6.0 | 0.00 | 0.00 | 0.00 | 56 | 1021.0 |
| 20260901135557 | 47 | 64 | 5.0 | 6.0 | 0.00 | 0.00 | 0.00 | 57 | 1020.9 |
| 20260901135057 | 44 | 75 | 2.0 | 4.0 | 0.00 | 0.00 | 0.00 | 64 | 1020.9 |
| 20260901134601 | 44 | 0 | 0.0 | 2.0 | 0.00 | 0.00 | 0.00 | 68 | 1020.8 |
| 20260901134057 | 45 | 0 | 0.0 | 1.0 | 0.00 | 0.00 | 0.00 | 65 | 1020.7 |
| 20260901133557 | 46 | 0 | 0.0 | 0.0 | 0.00 | 0.00 | 0.00 | 65 | 1020.7 |
| 20260901133113 | 46 | 0 | 0.0 | 1.0 | 0.00 | 0.00 | 0.00 | 64 | 1020.6 |
| 20260901132559 | 46 | 0 | 0.0 | 2.0 | 0.00 | 0.00 | 0.00 | 63 | 1020.6 |
| 20260901132101 | 47 | 0 | 0.0 | 2.0 | 0.00 | 0.00 | 0.00 | 61 | 1020.6 |
| 20260901131603 | 47 | 143 | 0.0 | 2.0 | 0.00 | 0.00 | 0.00 | 60 | 1020.5 |
| 20260901131101 | 47 | 0 | 0.0 | 2.0 | 0.00 | 0.00 | 0.00 | 60 | 1020.6 |
| 20260901130557 | 48 | 0 | 0.0 | 2.0 | 0.00 | 0.00 | 0.00 | 59 | 1020.5 |
| 20260901130106 | 47 | 0 | 0.0 | 2.0 | 0.00 | 0.00 | 0.00 | 60 | 1020.4 |
| 20260901125557 | 47 | 152 | 0.0 | 2.0 | 0.00 | 0.00 | 0.00 | 61 | 1020.6 |
| 20260901125057 | 47 | 0 | 0.0 | 0.0 | 0.00 | 0.00 | 0.00 | 63 | 1020.5 |
| 20260901124613 | 47 | 167 | 0.0 | 1.0 | 0.00 | 0.00 | 0.00 | 64 | 1020.4 |
| 20260901124056 | 47 | 0 | 0.0 | 1.0 | 0.00 | 0.00 | 0.00 | 66 | 1020.5 |
| 20260901123601 | 47 | 0 | 0.0 | 4.0 | 0.00 | 0.00 | 0.00 | 69 | 1020.3 |
| 20260901123120 | 47 | 0 | 0.0 | 4.0 | 0.00 | 0.00 | 0.00 | 69 | 1020.4 |
| 20260901122557 | 46 | 76 | 0.0 | 2.0 | 0.00 | 0.00 | 0.00 | 71 | 1020.4 |
| 20260901122057 | 46 | 0 | 0.0 | 2.0 | 0.00 | 0.00 | 0.00 | 73 | 1020.3 |
| 20260901121608 | 45 | 0 | 0.0 | 2.0 | 0.00 | 0.00 | 0.00 | 74 | 1020.2 |
| 20260901121100 | 45 | 0 | 0.0 | 1.0 | 0.00 | 0.00 | 0.00 | 74 | 1020.2 |
| 20260901120601 | 45 | 191 | 0.0 | 1.0 | 0.00 | 0.00 | 0.00 | 74 | 1020.3 |
| 20260901120118 | 46 | 0 | 0.0 | 0.0 | 0.00 | 0.00 | 0.00 | 73 | 1020.4 |
| 20260901115559 | 47 | 0 | 0.0 | 1.0 | 0.00 | 0.00 | 0.00 | 72 | 1020.4 |
| 20260901115058 | 47 | 0 | 0.0 | 1.0 | 0.00 | 0.00 | 0.00 | 73 | 1020.4 |
| 20260901114603 | 47 | 0 | 0.0 | 2.0 | 0.00 | 0.00 | 0.00 | 73 | 1020.5 |
| 20260901114059 | 46 | 0 | 0.0 | 2.0 | 0.00 | 0.00 | 0.00 | 74 | 1020.4 |
| 20260901113559 | 47 | 0 | 0.0 | 2.0 | 0.00 | 0.00 | 0.00 | 72 | 1020.5 |
| 20260901113118 | 47 | 0 | 0.0 | 1.0 | 0.00 | 0.00 | 0.00 | 72 | 1020.4 |
| 20260901112600 | 47 | 0 | 0.0 | 2.0 | 0.00 | 0.00 | 0.00 | 72 | 1020.4 |
| 20260901112059 | 47 | 181 | 0.0 | 2.0 | 0.00 | 0.00 | 0.00 | 72 | 1020.4 |
| 20260901111605 | 47 | 0 | 0.0 | 1.0 | 0.00 | 0.00 | 0.00 | 72 | 1020.4 |
| 20260901111059 | 47 | 0 | 0.0 | 2.0 | 0.00 | 0.00 | 0.00 | 74 | 1020.4 |
| 20260901110558 | 47 | 0 | 0.0 | 2.0 | 0.00 | 0.00 | 0.00 | 74 | 1020.5 |
| 20260901110108 | 47 | 0 | 0.0 | 2.0 | 0.00 | 0.00 | 0.00 | 74 | 1020.4 |
| 20260901105559 | 47 | 171 | 0.0 | 1.0 | 0.00 | 0.00 | 0.00 | 74 | 1020.5 |
| 20260901105058 | 47 | 0 | 0.0 | 2.0 | 0.00 | 0.00 | 0.00 | 76 | 1020.4 |
| 20260901104603 | 47 | 0 | 0.0 | 2.0 | 0.00 | 0.00 | 0.00 | 76 | 1020.2 |
| 20260901104059 | 47 | 224 | 0.0 | 1.0 | 0.00 | 0.00 | 0.00 | 75 | 1020.2 |
| 20260901103559 | 48 | 0 | 0.0 | 1.0 | 0.00 | 0.00 | 0.00 | 74 | 1020.2 |
| 20260901103112 | 48 | 0 | 0.0 | 0.0 | 0.00 | 0.00 | 0.00 | 74 | 1020.2 |
| 20260901102600 | 48 | 0 | 0.0 | 1.0 | 0.00 | 0.00 | 0.00 | 74 | 1020.2 |
| 20260901102059 | 48 | 0 | 0.0 | 1.0 | 0.00 | 0.00 | 0.00 | 75 | 1020.2 |
| 20260901101605 | 48 | 173 | 0.0 | 1.0 | 0.00 | 0.00 | 0.00 | 74 | 1020.2 |